Location: Unspecified
(35.7250°N, 0.0000°E)
Time: 03:56:19
(UTC+00:00)

Tiros 1 - Pass Details

Date: 26 June 2019
Orbit: 630 x 664 km, 48.4° (Epoch: 19 July)

Event Time Altitude Azimuth Distance (km) Brightness Sun altitude
Rises 01:07:48 0° 303° (WNW) 2,943 10.7 -28.9°
Reaches altitude 10° 01:10:52 10° 324° (NW) 2,027 10.1 -28.7°
Maximum altitude 01:13:58 17° 6° (N) 1,593 9.9 -28.5°
Drops below altitude 10° 01:17:04 10° 48° (NE) 2,015 10.4 -28.3°
Sets 01:20:06 0° 68° (ENE) 2,918 11.1 -28.1°
